Time,TemperatureF,DewpointF,PressureIn,WindDirection,WindDirectionDegrees,WindSpeedMPH,WindSpeedGustMPH,Humidity,HourlyPrecipIn,Conditions,Clouds,dailyrainin,SoftwareType,DateUTC
2013-09-20 00:03:00,77.7,66.3,29.88,SW,223,15.0,15.0,68,0.00,CLR,,0.00,WeatherDisplay:10.37,2013-09-20 05:03:00,
2013-09-20 00:08:00,77.6,66.2,29.88,South,184,12.7,12.7,68,0.00,CLR,,0.00,WeatherDisplay:10.37,2013-09-20 05:08:00,
2013-09-20 00:13:00,77.6,66.2,29.88,South,176,9.2,9.2,68,0.00,CLR,,0.00,WeatherDisplay:10.37,2013-09-20 05:13:00,
2013-09-20 00:18:00,77.5,66.1,29.87,SW,230,10.4,10.4,68,0.00,CLR,,0.00,WeatherDisplay:10.37,2013-09-20 05:18:00,
2013-09-20 00:23:00,77.4,66.0,29.87,SW,224,12.7,12.7,68,0.00,CLR,,0.00,WeatherDisplay:10.37,2013-09-20 05:23:00,
2013-09-20 00:28:00,77.3,65.5,29.87,South,184,15.0,15.0,67,0.00,CLR,,0.00,WeatherDisplay:10.37,2013-09-20 05:28:00,
2013-09-20 00:33:00,77.2,65.4,29.87,SW,234,11.5,11.5,67,0.00,CLR,,0.00,WeatherDisplay:10.37,2013-09-20 05:33:00,
2013-09-20 00:38:00,77.1,65.3,29.87,SW,225,12.7,12.7,67,0.00,CLR,,0.00,WeatherDisplay:10.37,2013-09-20 05:38:00,
2013-09-20 00:43:00,77.0,65.2,29.88,SW,224,17.3,17.3,67,0.00,CLR,,0.00,WeatherDisplay:10.37,2013-09-20 05:43:00,
2013-09-20 00:48:00,76.8,65.0,29.87,WSW,240,11.5,11.5,67,0.00,CLR,,0.00,WeatherDisplay:10.37,2013-09-20 05:48:00,
2013-09-20 00:53:00,76.7,64.9,29.87,SSW,213,13.8,13.8,67,0.00,CLR,,0.00,WeatherDisplay:10.37,2013-09-20 05:53:00,
2013-09-20 00:58:00,76.6,64.8,29.87,SW,232,15.0,15.0,67,0.00,CLR,,0.00,WeatherDisplay:10.37,2013-09-20 05:58:00,
2013-09-20 01:03:00,76.5,64.7,29.87,SW,220,11.5,11.5,67,0.00,CLR,,0.00,WeatherDisplay:10.37,2013-09-20 06:03:00,
2013-09-20 01:08:00,76.4,64.6,29.87,SW,215,15.0,15.0,67,0.00,CLR,,0.00,WeatherDisplay:10.37,2013-09-20 06:08:00,
2013-09-20 01:13:00,76.3,64.5,29.87,SSW,194,11.5,11.5,67,0.00,CLR,,0.00,WeatherDisplay:10.37,2013-09-20 06:13:00,
2013-09-20 01:18:00,76.2,64.0,29.87,South,175,13.0,13.0,66,0.00,CLR,,0.00,WeatherDisplay:10.37,2013-09-20 06:18:00,
2013-09-20 01:23:00,76.1,63.9,29.87,SW,226,11.5,11.5,66,0.00,CLR,,0.00,WeatherDisplay:10.37,2013-09-20 06:23:00,
2013-09-20 01:28:00,76.0,63.8,29.87,SW,214,12.7,12.7,66,0.00,CLR,,0.00,WeatherDisplay:10.37,2013-09-20 06:28:00,
2013-09-20 01:33:00,75.8,63.6,29.87,SSW,213,13.8,13.8,66,0.00,CLR,,0.00,WeatherDisplay:10.37,2013-09-20 06:33:00,
2013-09-20 01:38:00,75.8,63.6,29.87,SW,214,13.0,13.0,66,0.00,CLR,,0.00,WeatherDisplay:10.37,2013-09-20 06:38:00,
2013-09-20 01:43:00,75.7,63.5,29.87,SSW,213,9.2,9.2,66,0.00,CLR,,0.00,WeatherDisplay:10.37,2013-09-20 06:43:00,
2013-09-20 01:48:00,75.6,63.0,29.87,WSW,238,15.0,15.0,65,0.00,CLR,,0.00,WeatherDisplay:10.37,2013-09-20 06:48:00,
2013-09-20 01:53:00,75.5,62.9,29.87,SW,232,11.5,11.5,65,0.00,CLR,,0.00,WeatherDisplay:10.37,2013-09-20 06:53:00,
2013-09-20 01:58:00,75.5,62.9,29.87,South,188,9.2,9.2,65,0.00,CLR,,0.00,WeatherDisplay:10.37,2013-09-20 06:58:00,
2013-09-20 02:03:00,75.5,62.9,29.86,SW,235,13.8,13.8,65,0.00,CLR,,0.00,WeatherDisplay:10.37,2013-09-20 07:03:00,
2013-09-20 02:08:00,75.5,62.9,29.86,SSW,192,10.4,10.4,65,0.00,CLR,,0.00,WeatherDisplay:10.37,2013-09-20 07:08:00,
2013-09-20 02:13:00,75.5,62.9,29.86,SW,236,6.9,6.9,65,0.00,CLR,,0.00,WeatherDisplay:10.37,2013-09-20 07:13:00,
2013-09-20 02:18:00,75.5,62.9,29.87,South,188,9.2,9.2,65,0.00,CLR,,0.00,WeatherDisplay:10.37,2013-09-20 07:18:00,
2013-09-20 02:23:00,75.5,62.9,29.86,SSW,212,6.9,6.9,65,0.00,CLR,,0.00,WeatherDisplay:10.37,2013-09-20 07:23:00,
2013-09-20 02:28:00,75.5,62.9,29.86,SW,226,11.5,11.5,65,0.00,CLR,,0.00,WeatherDisplay:10.37,2013-09-20 07:28:00,
2013-09-20 02:33:00,75.4,62.8,29.86,SSW,206,9.2,9.2,65,0.00,CLR,,0.00,WeatherDisplay:10.37,2013-09-20 07:33:00,
2013-09-20 02:38:00,75.3,62.7,29.86,SW,218,11.5,11.5,65,0.00,CLR,,0.00,WeatherDisplay:10.37,2013-09-20 07:38:00,
2013-09-20 02:43:00,75.3,62.7,29.86,SSW,194,6.9,6.9,65,0.00,CLR,,0.00,WeatherDisplay:10.37,2013-09-20 07:43:00,
2013-09-20 02:48:00,75.3,62.7,29.86,SSW,203,11.5,11.5,65,0.00,CLR,,0.00,WeatherDisplay:10.37,2013-09-20 07:48:00,
2013-09-20 02:53:00,75.2,62.6,29.86,SW,220,11.0,11.0,65,0.00,CLR,,0.00,WeatherDisplay:10.37,2013-09-20 07:53:00,
2013-09-20 02:58:00,75.2,62.6,29.85,SW,228,10.4,10.4,65,0.00,CLR,,0.00,WeatherDisplay:10.37,2013-09-20 07:58:00,
2013-09-20 03:03:00,75.1,62.5,29.85,South,190,11.5,11.5,65,0.00,CLR,,0.00,WeatherDisplay:10.37,2013-09-20 08:03:00,
2013-09-20 03:08:00,74.9,62.3,29.86,WSW,238,10.4,10.4,65,0.00,CLR,,0.00,WeatherDisplay:10.37,2013-09-20 08:08:00,
2013-09-20 03:13:00,74.8,62.2,29.86,SW,216,5.8,5.8,65,0.00,CLR,,0.00,WeatherDisplay:10.37,2013-09-20 08:13:00,
2013-09-20 03:18:00,74.7,61.7,29.86,SW,229,6.9,6.9,64,0.00,CLR,,0.00,WeatherDisplay:10.37,2013-09-20 08:18:00,
2013-09-20 03:23:00,74.7,61.7,29.86,SW,220,5.8,5.8,64,0.00,CLR,,0.00,WeatherDisplay:10.37,2013-09-20 08:23:00,
2013-09-20 03:28:00,74.6,61.6,29.87,WSW,243,17.3,17.3,64,0.00,CLR,,0.00,WeatherDisplay:10.37,2013-09-20 08:28:00,
2013-09-20 03:33:00,74.4,61.4,29.87,WSW,241,10.4,10.4,64,0.00,CLR,,0.00,WeatherDisplay:10.37,2013-09-20 08:33:00,
2013-09-20 03:38:00,74.1,61.1,29.86,WSW,254,3.5,3.5,64,0.00,CLR,,0.00,WeatherDisplay:10.37,2013-09-20 08:38:00,
2013-09-20 03:43:00,73.7,60.8,29.86,West,261,0.0,0.0,64,0.00,CLR,,0.00,WeatherDisplay:10.37,2013-09-20 08:43:00,
2013-09-20 03:48:00,73.5,60.6,29.86,West,260,0.0,0.0,64,0.00,CLR,,0.00,WeatherDisplay:10.37,2013-09-20 08:48:00,
2013-09-20 03:53:00,73.5,60.6,29.85,West,260,0.0,0.0,64,0.00,CLR,,0.00,WeatherDisplay:10.37,2013-09-20 08:53:00,
2013-09-20 03:58:00,73.5,60.6,29.86,West,261,0.0,0.0,64,0.00,CLR,,0.00,WeatherDisplay:10.37,2013-09-20 08:58:00,
2013-09-20 04:03:00,73.6,60.7,29.85,West,261,0.0,0.0,64,0.00,CLR,,0.00,WeatherDisplay:10.37,2013-09-20 09:03:00,
2013-09-20 04:08:00,73.6,60.7,29.85,West,260,0.0,0.0,64,0.00,CLR,,0.00,WeatherDisplay:10.37,2013-09-20 09:08:00,
2013-09-20 04:13:00,73.6,60.7,29.85,West,260,1.2,0.0,64,0.00,CLR,,0.00,WeatherDisplay:10.37,2013-09-20 09:13:00,
2013-09-20 04:18:00,73.5,60.6,29.85,South,190,2.3,2.3,64,0.00,CLR,,0.00,WeatherDisplay:10.37,2013-09-20 09:18:00,
2013-09-20 04:23:00,73.5,60.6,29.85,South,190,1.2,0.0,64,0.00,CLR,,0.00,WeatherDisplay:10.37,2013-09-20 09:23:00,
2013-09-20 04:28:00,73.5,60.1,29.85,South,190,3.5,3.5,63,0.00,CLR,,0.00,WeatherDisplay:10.37,2013-09-20 09:28:00,
2013-09-20 04:33:00,73.6,60.2,29.85,SW,217,4.0,4.0,63,0.00,CLR,,0.00,WeatherDisplay:10.37,2013-09-20 09:33:00,
2013-09-20 04:38:00,73.6,60.2,29.84,SSW,205,4.0,0.0,63,0.00,CLR,,0.00,WeatherDisplay:10.37,2013-09-20 09:38:00,
2013-09-20 04:43:00,73.6,60.2,29.84,South,179,4.6,4.6,63,0.00,CLR,,0.00,WeatherDisplay:10.37,2013-09-20 09:43:00,
2013-09-20 04:48:00,73.5,59.7,29.84,SSW,202,5.0,5.0,62,0.00,CLR,,0.00,WeatherDisplay:10.37,2013-09-20 09:48:00,
2013-09-20 04:53:00,73.4,59.6,29.83,SSW,202,11.5,11.5,62,0.00,CLR,,0.00,WeatherDisplay:10.37,2013-09-20 09:53:00,
2013-09-20 04:58:00,73.4,59.6,29.84,SSE,164,9.2,9.2,62,0.00,CLR,,0.00,WeatherDisplay:10.37,2013-09-20 09:58:00,
2013-09-20 05:03:00,73.4,59.6,29.83,South,173,4.6,4.6,62,0.00,CLR,,0.00,WeatherDisplay:10.37,2013-09-20 10:03:00,
2013-09-20 05:08:00,73.3,59.5,29.84,South,181,6.9,6.9,62,0.00,CLR,,0.00,WeatherDisplay:10.37,2013-09-20 10:08:00,
2013-09-20 05:13:00,73.3,59.5,29.84,SSW,209,9.2,9.2,62,0.00,CLR,,0.00,WeatherDisplay:10.37,2013-09-20 10:13:00,
2013-09-20 05:18:00,73.2,59.4,29.84,SW,232,5.8,5.8,62,0.00,CLR,,0.00,WeatherDisplay:10.37,2013-09-20 10:18:00,
2013-09-20 05:23:00,73.2,58.9,29.83,South,190,4.6,4.6,61,0.00,CLR,,0.00,WeatherDisplay:10.37,2013-09-20 10:23:00,
2013-09-20 05:28:00,73.1,58.8,29.83,SSW,207,6.9,6.9,61,0.00,CLR,,0.00,WeatherDisplay:10.37,2013-09-20 10:28:00,
2013-09-20 05:33:00,73.1,58.8,29.83,SW,219,5.8,5.8,61,0.00,CLR,,0.00,WeatherDisplay:10.37,2013-09-20 10:33:00,
2013-09-20 05:38:00,73.1,58.8,29.84,SW,225,4.6,4.6,61,0.00,CLR,,0.00,WeatherDisplay:10.37,2013-09-20 10:38:00,
2013-09-20 05:43:00,73.1,58.8,29.84,SSW,200,5.8,5.8,61,0.00,CLR,,0.00,WeatherDisplay:10.37,2013-09-20 10:43:00,
2013-09-20 05:48:00,73.1,58.8,29.84,SW,215,5.8,5.8,61,0.00,CLR,,0.00,WeatherDisplay:10.37,2013-09-20 10:48:00,
2013-09-20 05:53:00,73.1,58.8,29.84,SW,223,9.2,9.2,61,0.00,CLR,,0.00,WeatherDisplay:10.37,2013-09-20 10:53:00,
2013-09-20 05:58:00,73.1,58.8,29.84,WSW,244,10.4,10.4,61,0.00,CLR,,0.00,WeatherDisplay:10.37,2013-09-20 10:58:00,
2013-09-20 06:03:00,73.0,58.8,29.84,SSW,213,10.4,10.4,61,0.00,CLR,,0.00,WeatherDisplay:10.37,2013-09-20 11:03:00,
2013-09-20 06:08:00,72.9,58.7,29.84,SW,218,10.4,10.4,61,0.00,CLR,,0.00,WeatherDisplay:10.37,2013-09-20 11:08:00,
2013-09-20 06:13:00,72.9,58.7,29.85,SW,230,3.5,3.5,61,0.00,CLR,,0.00,WeatherDisplay:10.37,2013-09-20 11:13:00,
2013-09-20 06:18:00,72.9,59.1,29.85,West,259,6.9,6.9,62,0.00,CLR,,0.00,WeatherDisplay:10.37,2013-09-20 11:18:00,
2013-09-20 06:23:00,72.8,59.0,29.85,WSW,244,4.6,4.6,62,0.00,CLR,,0.00,WeatherDisplay:10.37,2013-09-20 11:23:00,
2013-09-20 06:28:00,72.7,58.9,29.86,SW,225,5.8,5.8,62,0.00,CLR,,0.00,WeatherDisplay:10.37,2013-09-20 11:28:00,
2013-09-20 06:33:00,72.6,58.8,29.86,WSW,248,12.7,12.7,62,0.00,CLR,,0.00,WeatherDisplay:10.37,2013-09-20 11:33:00,
2013-09-20 06:38:00,72.5,58.7,29.86,WSW,245,6.9,6.9,62,0.00,CLR,,0.00,WeatherDisplay:10.37,2013-09-20 11:38:00,
2013-09-20 06:43:00,72.4,58.6,29.86,SW,232,8.1,8.1,62,0.00,CLR,,0.00,WeatherDisplay:10.37,2013-09-20 11:43:00,
2013-09-20 06:48:00,72.3,58.5,29.86,West,263,1.2,1.2,62,0.00,CLR,,0.00,WeatherDisplay:10.37,2013-09-20 11:48:00,
2013-09-20 06:53:00,72.2,58.5,29.86,WSW,248,6.9,6.9,62,0.00,CLR,,0.00,WeatherDisplay:10.37,2013-09-20 11:53:00,
2013-09-20 06:58:00,72.0,58.3,29.86,WNW,282,4.6,4.6,62,0.00,CLR,,0.00,WeatherDisplay:10.37,2013-09-20 11:58:00,
2013-09-20 07:03:00,71.9,58.2,29.86,WSW,237,9.0,9.0,62,0.00,CLR,,0.00,WeatherDisplay:10.37,2013-09-20 12:03:00,
2013-09-20 07:08:00,71.8,58.1,29.87,WSW,248,5.8,5.8,62,0.00,CLR,,0.00,WeatherDisplay:10.37,2013-09-20 12:08:00,
2013-09-20 07:13:00,71.8,58.1,29.88,SSW,213,4.6,4.6,62,0.00,CLR,,0.00,WeatherDisplay:10.37,2013-09-20 12:13:00,
2013-09-20 07:18:00,71.6,57.4,29.88,WSW,244,3.5,3.5,61,0.00,CLR,,0.00,WeatherDisplay:10.37,2013-09-20 12:18:00,
2013-09-20 07:23:00,71.5,57.3,29.88,West,269,0.0,0.0,61,0.00,CLR,,0.00,WeatherDisplay:10.37,2013-09-20 12:23:00,
2013-09-20 07:28:00,71.3,57.2,29.87,West,269,0.0,0.0,61,0.00,CLR,,0.00,WeatherDisplay:10.37,2013-09-20 12:28:00,
2013-09-20 07:33:00,71.2,56.6,29.86,WNW,302,4.6,4.6,60,0.00,CLR,,0.00,WeatherDisplay:10.37,2013-09-20 12:33:00,
2013-09-20 07:38:00,71.0,56.4,29.86,SW,225,0.0,0.0,60,0.00,CLR,,0.00,WeatherDisplay:10.37,2013-09-20 12:38:00,
2013-09-20 07:43:00,71.0,56.4,29.86,SW,225,0.0,0.0,60,0.00,CLR,,0.00,WeatherDisplay:10.37,2013-09-20 12:43:00,
2013-09-20 07:48:00,70.9,55.9,29.86,SW,225,0.0,0.0,59,0.00,CLR,,0.00,WeatherDisplay:10.37,2013-09-20 12:48:00,
2013-09-20 07:53:00,70.9,55.9,29.87,SW,225,3.0,3.0,59,0.00,CLR,,0.00,WeatherDisplay:10.37,2013-09-20 12:53:00,
2013-09-20 07:59:00,70.8,55.8,29.86,SW,225,0.0,0.0,59,0.00,CLR,,0.00,WeatherDisplay:10.37,2013-09-20 12:59:00,
2013-09-20 08:04:00,70.8,55.8,29.86,SW,225,3.0,3.0,59,0.00,CLR,,0.00,WeatherDisplay:10.37,2013-09-20 13:04:00,
2013-09-20 08:09:00,70.7,55.2,29.86,SW,225,0.0,0.0,58,0.00,CLR,,0.00,WeatherDisplay:10.37,2013-09-20 13:09:00,
2013-09-20 08:14:00,70.8,55.3,29.86,SW,225,0.0,0.0,58,0.00,CLR,,0.00,WeatherDisplay:10.37,2013-09-20 13:14:00,
2013-09-20 08:19:00,70.8,55.3,29.86,SW,225,0.0,0.0,58,0.00,CLR,,0.00,WeatherDisplay:10.37,2013-09-20 13:19:00,
2013-09-20 08:24:00,70.8,55.3,29.86,SW,225,0.0,0.0,58,0.00,CLR,,0.00,WeatherDisplay:10.37,2013-09-20 13:24:00,
2013-09-20 08:29:00,70.8,55.3,29.86,SW,225,3.5,3.5,58,0.00,CLR,,0.00,WeatherDisplay:10.37,2013-09-20 13:29:00,
2013-09-20 08:34:00,70.6,55.1,29.86,SW,229,3.5,3.5,58,0.00,CLR,,0.00,WeatherDisplay:10.37,2013-09-20 13:34:00,
2013-09-20 08:39:00,70.6,55.1,29.86,SW,229,2.0,2.0,58,0.00,CLR,,0.00,WeatherDisplay:10.37,2013-09-20 13:39:00,
2013-09-20 08:44:00,70.4,54.9,29.87,WSW,250,3.5,3.5,58,0.00,CLR,,0.00,WeatherDisplay:10.37,2013-09-20 13:44:00,
2013-09-20 08:49:00,70.0,54.5,29.87,WSW,254,3.5,3.5,58,0.00,CLR,,0.00,WeatherDisplay:10.37,2013-09-20 13:49:00,
2013-09-20 08:54:00,69.9,54.4,29.87,WSW,257,6.9,6.9,58,0.00,CLR,,0.00,WeatherDisplay:10.37,2013-09-20 13:54:00,
2013-09-20 08:59:00,69.8,54.4,29.87,WSW,257,6.9,6.9,58,0.00,CLR,,0.00,WeatherDisplay:10.37,2013-09-20 13:59:00,
2013-09-20 09:04:00,69.8,54.4,29.87,WSW,241,4.6,4.6,58,0.00,CLR,,0.00,WeatherDisplay:10.37,2013-09-20 14:04:00,
2013-09-20 09:09:00,69.8,54.4,29.87,West,272,0.0,0.0,58,0.00,CLR,,0.00,WeatherDisplay:10.37,2013-09-20 14:09:00,
2013-09-20 09:14:00,69.9,54.4,29.86,West,267,1.2,0.0,58,0.00,CLR,,0.00,WeatherDisplay:10.37,2013-09-20 14:14:00,
2013-09-20 09:19:00,69.9,54.4,29.87,West,280,5.8,5.8,58,0.00,CLR,,0.00,WeatherDisplay:10.37,2013-09-20 14:19:00,
2013-09-20 09:24:00,69.9,54.4,29.87,West,271,3.5,3.5,58,0.00,CLR,,0.00,WeatherDisplay:10.37,2013-09-20 14:24:00,
2013-09-20 09:29:00,70.1,54.6,29.87,West,263,5.8,5.8,58,0.00,CLR,,0.00,WeatherDisplay:10.37,2013-09-20 14:29:00,
2013-09-20 09:34:00,70.1,54.6,29.88,SW,236,7.0,7.0,58,0.00,CLR,,0.00,WeatherDisplay:10.37,2013-09-20 14:34:00,
2013-09-20 09:39:00,70.3,54.8,29.87,WSW,257,0.0,0.0,58,0.00,CLR,,0.00,WeatherDisplay:10.37,2013-09-20 14:39:00,
2013-09-20 09:44:00,70.3,55.3,29.88,West,265,0.0,0.0,59,0.00,CLR,,0.00,WeatherDisplay:10.37,2013-09-20 14:44:00,
2013-09-20 09:49:00,70.2,55.2,29.87,West,263,3.0,3.0,59,0.00,CLR,,0.00,WeatherDisplay:10.37,2013-09-20 14:49:00,
2013-09-20 09:54:00,70.2,55.2,29.87,West,263,0.0,0.0,59,0.00,CLR,,0.00,WeatherDisplay:10.37,2013-09-20 14:54:00,
2013-09-20 09:59:00,70.3,55.3,29.87,West,263,3.5,3.5,59,0.00,CLR,,0.00,WeatherDisplay:10.37,2013-09-20 14:59:00,
2013-09-20 10:04:00,70.5,55.9,29.87,West,263,1.2,1.2,60,0.00,CLR,,0.00,WeatherDisplay:10.37,2013-09-20 15:04:00,
2013-09-20 10:09:00,70.5,55.9,29.87,West,263,0.0,0.0,60,0.00,CLR,,0.00,WeatherDisplay:10.37,2013-09-20 15:09:00,
2013-09-20 10:14:00,70.6,56.0,29.87,West,263,3.5,3.5,60,0.00,CLR,,0.00,WeatherDisplay:10.37,2013-09-20 15:14:00,
2013-09-20 10:19:00,70.7,56.1,29.87,West,265,5.0,5.0,60,0.00,CLR,,0.00,WeatherDisplay:10.37,2013-09-20 15:19:00,
2013-09-20 10:24:00,70.7,56.1,29.87,West,265,3.5,3.5,60,0.00,CLR,,0.00,WeatherDisplay:10.37,2013-09-20 15:24:00,
2013-09-20 10:29:00,70.8,56.2,29.87,SSW,198,3.5,3.5,60,0.00,CLR,,0.00,WeatherDisplay:10.37,2013-09-20 15:29:00,
2013-09-20 10:34:00,70.8,56.2,29.87,SSW,213,3.5,3.5,60,0.00,CLR,,0.00,WeatherDisplay:10.37,2013-09-20 15:34:00,
2013-09-20 10:39:00,70.8,56.2,29.87,SSW,213,0.0,0.1,60,0.00,CLR,,0.00,WeatherDisplay:10.37,2013-09-20 15:39:00,
2013-09-20 10:44:00,70.9,56.3,29.86,SSW,213,0.0,0.0,60,0.00,CLR,,0.00,WeatherDisplay:10.37,2013-09-20 15:44:00,
2013-09-20 10:49:00,71.2,56.6,29.86,SW,216,3.5,0.0,60,0.00,CLR,,0.00,WeatherDisplay:10.37,2013-09-20 15:49:00,
2013-09-20 10:54:00,71.3,57.2,29.86,SW,228,4.0,4.0,61,0.00,CLR,,0.00,WeatherDisplay:10.37,2013-09-20 15:54:00,
2013-09-20 10:59:00,71.3,57.2,29.86,West,263,2.3,2.3,61,0.00,CLR,,0.00,WeatherDisplay:10.37,2013-09-20 15:59:00,
2013-09-20 11:04:00,71.3,57.6,29.86,West,270,4.6,4.6,62,0.00,CLR,,0.00,WeatherDisplay:10.37,2013-09-20 16:04:00,
2013-09-20 11:09:00,71.6,57.9,29.86,SW,223,2.3,0.0,62,0.00,CLR,,0.00,WeatherDisplay:10.37,2013-09-20 16:09:00,
2013-09-20 11:14:00,71.7,58.4,29.86,WSW,253,9.2,9.2,63,0.00,CLR,,0.00,WeatherDisplay:10.37,2013-09-20 16:14:00,
2013-09-20 11:19:00,71.9,58.6,29.86,West,270,4.0,4.0,63,0.00,CLR,,0.00,WeatherDisplay:10.37,2013-09-20 16:19:00,
2013-09-20 11:24:00,72.0,59.2,29.85,SW,229,4.6,4.6,64,0.00,CLR,,0.00,WeatherDisplay:10.37,2013-09-20 16:24:00,
2013-09-20 11:29:00,72.2,59.3,29.85,WSW,244,6.9,6.9,64,0.00,CLR,,0.00,WeatherDisplay:10.37,2013-09-20 16:29:00,
2013-09-20 11:34:00,72.4,60.0,29.85,WSW,254,5.8,5.8,65,0.00,CLR,,0.00,WeatherDisplay:10.37,2013-09-20 16:34:00,
2013-09-20 11:39:00,72.8,60.3,29.85,SW,217,5.8,5.8,65,0.00,CLR,,0.00,WeatherDisplay:10.37,2013-09-20 16:39:00,
2013-09-20 11:44:00,73.0,61.0,29.85,WSW,252,5.8,5.8,66,0.00,CLR,,0.00,WeatherDisplay:10.37,2013-09-20 16:44:00,
2013-09-20 11:49:00,73.2,61.6,29.85,SSW,200,7.0,7.0,67,0.00,CLR,,0.00,WeatherDisplay:10.37,2013-09-20 16:49:00,
2013-09-20 11:54:00,73.4,61.8,29.85,SSW,212,10.4,10.4,67,0.00,CLR,,0.00,WeatherDisplay:10.37,2013-09-20 16:54:00,
2013-09-20 11:59:00,73.6,62.4,29.85,West,259,6.9,6.9,68,0.00,CLR,,0.00,WeatherDisplay:10.37,2013-09-20 16:59:00,
2013-09-20 12:04:00,73.7,62.5,29.85,West,260,4.6,4.6,68,0.00,CLR,,0.00,WeatherDisplay:10.37,2013-09-20 17:04:00,
2013-09-20 12:09:00,73.7,62.5,29.85,WNW,296,9.2,9.2,68,0.00,CLR,,0.00,WeatherDisplay:10.37,2013-09-20 17:09:00,
2013-09-20 12:14:00,73.7,62.9,29.85,West,259,9.2,9.2,69,0.00,CLR,,0.00,WeatherDisplay:10.37,2013-09-20 17:14:00,
2013-09-20 12:19:00,73.7,62.5,29.85,West,259,3.5,3.5,68,0.00,CLR,,0.00,WeatherDisplay:10.37,2013-09-20 17:19:00,
2013-09-20 12:24:00,73.8,62.6,29.84,West,264,1.2,1.2,68,0.00,CLR,,0.00,WeatherDisplay:10.37,2013-09-20 17:24:00,
2013-09-20 12:29:00,73.9,63.1,29.84,SW,234,5.8,5.8,69,0.00,CLR,,0.00,WeatherDisplay:10.37,2013-09-20 17:29:00,
2013-09-20 12:34:00,73.9,62.7,29.84,WSW,244,6.9,6.9,68,0.00,CLR,,0.00,WeatherDisplay:10.37,2013-09-20 17:34:00,
2013-09-20 12:39:00,73.8,63.0,29.84,West,271,4.6,4.6,69,0.00,CLR,,0.00,WeatherDisplay:10.37,2013-09-20 17:39:00,
2013-09-20 12:44:00,73.9,62.7,29.84,West,261,4.6,4.6,68,0.00,CLR,,0.00,WeatherDisplay:10.37,2013-09-20 17:44:00,
2013-09-20 12:49:00,73.9,62.7,29.84,West,263,3.5,3.5,68,0.00,CLR,,0.00,WeatherDisplay:10.37,2013-09-20 17:49:00,
2013-09-20 12:54:00,74.0,62.8,29.84,WSW,244,5.0,5.0,68,0.00,CLR,,0.00,WeatherDisplay:10.37,2013-09-20 17:54:00,
2013-09-20 12:59:00,74.1,63.3,29.84,West,272,4.6,4.6,69,0.00,CLR,,0.00,WeatherDisplay:10.37,2013-09-20 17:59:00,
2013-09-20 13:04:00,74.2,63.4,29.84,SW,231,9.0,9.0,69,0.00,CLR,,0.00,WeatherDisplay:10.37,2013-09-20 18:04:00,
2013-09-20 13:09:00,74.4,63.6,29.84,SW,217,6.0,6.0,69,0.00,CLR,,0.00,WeatherDisplay:10.37,2013-09-20 18:09:00,
2013-09-20 13:14:00,74.5,63.7,29.83,WSW,250,5.8,5.8,69,0.00,CLR,,0.00,WeatherDisplay:10.37,2013-09-20 18:14:00,
2013-09-20 13:19:00,74.6,63.8,29.83,SW,218,4.6,4.6,69,0.00,CLR,,0.00,WeatherDisplay:10.37,2013-09-20 18:19:00,
2013-09-20 13:24:00,74.6,63.8,29.83,SW,221,6.9,6.9,69,0.00,CLR,,0.00,WeatherDisplay:10.37,2013-09-20 18:24:00,
2013-09-20 13:29:00,74.7,63.9,29.83,WSW,241,9.2,9.2,69,0.00,CLR,,0.00,WeatherDisplay:10.37,2013-09-20 18:29:00,
2013-09-20 13:34:00,74.8,63.9,29.82,West,268,4.0,4.0,69,0.00,CLR,,0.00,WeatherDisplay:10.37,2013-09-20 18:34:00,
2013-09-20 13:39:00,74.9,64.0,29.82,WSW,253,5.8,5.8,69,0.00,CLR,,0.00,WeatherDisplay:10.37,2013-09-20 18:39:00,
2013-09-20 13:44:00,75.1,64.2,29.82,WSW,243,5.8,5.8,69,0.00,CLR,,0.00,WeatherDisplay:10.37,2013-09-20 18:44:00,
2013-09-20 13:49:00,75.1,64.2,29.82,West,279,6.9,6.9,69,0.00,CLR,,0.00,WeatherDisplay:10.37,2013-09-20 18:49:00,
2013-09-20 13:54:00,75.1,64.6,29.82,WSW,252,11.5,11.5,70,0.00,CLR,,0.00,WeatherDisplay:10.37,2013-09-20 18:54:00,
2013-09-20 13:59:00,75.1,64.6,29.82,West,260,3.5,3.5,70,0.00,CLR,,0.00,WeatherDisplay:10.37,2013-09-20 18:59:00,
2013-09-20 14:04:00,75.2,64.7,29.82,West,264,4.6,4.6,70,0.00,CLR,,0.00,WeatherDisplay:10.37,2013-09-20 19:04:00,
2013-09-20 14:09:00,75.0,64.5,29.82,WSW,237,6.9,6.9,70,0.00,CLR,,0.00,WeatherDisplay:10.37,2013-09-20 19:09:00,
2013-09-20 14:14:00,74.8,63.9,29.81,SSW,200,3.0,3.0,69,0.00,CLR,,0.00,WeatherDisplay:10.37,2013-09-20 19:14:00,
2013-09-20 14:19:00,74.7,63.9,29.81,SW,223,5.8,5.8,69,0.00,CLR,,0.00,WeatherDisplay:10.37,2013-09-20 19:19:00,
2013-09-20 14:24:00,74.4,63.6,29.81,SW,233,6.9,6.9,69,0.00,CLR,,0.00,WeatherDisplay:10.37,2013-09-20 19:24:00,
2013-09-20 14:29:00,74.0,62.8,29.81,SW,232,5.8,5.8,68,0.00,CLR,,0.00,WeatherDisplay:10.37,2013-09-20 19:29:00,
2013-09-20 14:34:00,73.8,62.2,29.81,SSW,196,1.2,1.2,67,0.00,CLR,,0.00,WeatherDisplay:10.37,2013-09-20 19:34:00,
2013-09-20 14:39:00,73.3,61.3,29.81,SW,222,0.0,0.0,66,0.00,CLR,,0.00,WeatherDisplay:10.37,2013-09-20 19:39:00,
2013-09-20 14:44:00,72.9,60.9,29.81,NW,325,9.0,9.0,66,0.00,CLR,,0.00,WeatherDisplay:10.37,2013-09-20 19:44:00,
2013-09-20 14:49:00,71.6,58.8,29.81,WNW,299,5.8,5.8,64,0.00,CLR,,0.00,WeatherDisplay:10.37,2013-09-20 19:49:00,
2013-09-20 14:54:00,70.8,57.6,29.81,NW,323,2.3,2.3,63,0.00,CLR,,0.00,WeatherDisplay:10.37,2013-09-20 19:54:00,
2013-09-20 14:59:00,70.4,56.3,29.82,WSW,253,3.5,3.5,61,0.00,CLR,,0.00,WeatherDisplay:10.37,2013-09-20 19:59:00,
2013-09-20 15:04:00,70.3,55.8,29.82,West,279,0.0,0.0,60,0.00,CLR,,0.00,WeatherDisplay:10.37,2013-09-20 20:04:00,
2013-09-20 15:09:00,70.3,55.8,29.81,West,279,0.0,0.0,60,0.00,CLR,,0.00,WeatherDisplay:10.37,2013-09-20 20:09:00,
2013-09-20 15:14:00,70.2,55.2,29.81,WNW,284,2.3,2.3,59,0.00,CLR,,0.00,WeatherDisplay:10.37,2013-09-20 20:14:00,
2013-09-20 15:19:00,70.1,55.1,29.81,WSW,254,1.2,1.2,59,0.00,CLR,,0.00,WeatherDisplay:10.37,2013-09-20 20:19:00,
2013-09-20 15:24:00,70.2,54.7,29.81,WSW,253,0.0,0.0,58,0.00,CLR,,0.00,WeatherDisplay:10.37,2013-09-20 20:24:00,
2013-09-20 15:29:00,70.2,54.7,29.81,WSW,253,0.0,0.0,58,0.00,CLR,,0.00,WeatherDisplay:10.37,2013-09-20 20:29:00,
2013-09-20 15:34:00,70.1,54.6,29.81,WSW,249,0.0,0.0,58,0.00,CLR,,0.00,WeatherDisplay:10.37,2013-09-20 20:34:00,
2013-09-20 15:39:00,70.0,54.5,29.81,WSW,244,0.0,0.0,58,0.00,CLR,,0.00,WeatherDisplay:10.37,2013-09-20 20:39:00,
2013-09-20 15:44:00,70.0,54.5,29.81,WSW,246,0.0,0.0,58,0.00,CLR,,0.00,WeatherDisplay:10.37,2013-09-20 20:44:00,
2013-09-20 15:49:00,70.2,54.2,29.81,WSW,246,0.0,0.0,57,0.00,CLR,,0.00,WeatherDisplay:10.37,2013-09-20 20:49:00,
2013-09-20 15:54:00,70.2,54.2,29.81,WSW,245,0.0,0.0,57,0.00,CLR,,0.00,WeatherDisplay:10.37,2013-09-20 20:54:00,
2013-09-20 15:59:00,70.2,54.2,29.81,SSW,194,0.0,0.0,57,0.00,CLR,,0.00,WeatherDisplay:10.37,2013-09-20 20:59:00,
2013-09-20 16:04:00,70.1,54.2,29.81,SW,217,0.0,0.0,57,0.00,CLR,,0.00,WeatherDisplay:10.37,2013-09-20 21:04:00,
2013-09-20 16:09:00,70.2,54.2,29.81,SW,218,0.0,0.0,57,0.00,CLR,,0.00,WeatherDisplay:10.37,2013-09-20 21:09:00,
2013-09-20 16:14:00,70.2,54.2,29.80,SW,217,0.0,0.0,57,0.00,CLR,,0.00,WeatherDisplay:10.37,2013-09-20 21:14:00,
2013-09-20 16:19:00,70.2,54.2,29.80,SW,218,0.0,0.0,57,0.00,CLR,,0.00,WeatherDisplay:10.37,2013-09-20 21:19:00,
2013-09-20 16:24:00,70.2,54.2,29.80,SW,218,0.0,0.0,57,0.00,CLR,,0.00,WeatherDisplay:10.37,2013-09-20 21:24:00,
2013-09-20 16:29:00,70.3,53.9,29.80,SW,218,0.0,0.0,56,0.00,CLR,,0.00,WeatherDisplay:10.37,2013-09-20 21:29:00,
2013-09-20 16:34:00,70.4,54.0,29.80,SW,219,0.0,0.0,56,0.00,CLR,,0.00,WeatherDisplay:10.37,2013-09-20 21:34:00,
2013-09-20 16:39:00,70.4,54.0,29.80,SW,218,0.0,0.0,56,0.00,CLR,,0.00,WeatherDisplay:10.37,2013-09-20 21:39:00,
2013-09-20 16:44:00,70.4,54.0,29.80,SW,217,0.0,0.0,56,0.00,CLR,,0.00,WeatherDisplay:10.37,2013-09-20 21:44:00,
2013-09-20 16:49:00,70.4,54.0,29.80,SW,218,0.0,0.0,56,0.00,CLR,,0.00,WeatherDisplay:10.37,2013-09-20 21:49:00,
2013-09-20 16:54:00,70.5,54.0,29.80,SW,217,0.0,0.0,56,0.00,CLR,,0.00,WeatherDisplay:10.37,2013-09-20 21:54:00,
2013-09-20 16:59:00,70.6,54.1,29.80,SW,217,0.0,0.0,56,0.00,CLR,,0.00,WeatherDisplay:10.37,2013-09-20 21:59:00,
2013-09-20 17:04:00,70.6,54.1,29.80,SW,217,0.0,0.0,56,0.00,CLR,,0.00,WeatherDisplay:10.37,2013-09-20 22:04:00,
2013-09-20 17:09:00,70.6,54.1,29.80,SW,218,0.0,0.0,56,0.00,CLR,,0.00,WeatherDisplay:10.37,2013-09-20 22:09:00,
2013-09-20 17:14:00,70.6,54.1,29.79,SW,217,0.0,0.0,56,0.00,CLR,,0.00,WeatherDisplay:10.37,2013-09-20 22:14:00,
2013-09-20 17:19:00,70.7,54.2,29.79,SW,217,0.0,0.0,56,0.00,CLR,,0.00,WeatherDisplay:10.37,2013-09-20 22:19:00,
2013-09-20 17:24:00,70.7,54.2,29.79,WSW,247,0.0,0.0,56,0.00,CLR,,0.00,WeatherDisplay:10.37,2013-09-20 22:24:00,
2013-09-20 17:29:00,70.5,54.0,29.80,WSW,247,0.0,0.0,56,0.00,CLR,,0.00,WeatherDisplay:10.37,2013-09-20 22:29:00,
2013-09-20 17:34:00,70.4,54.0,29.80,South,187,0.0,0.0,56,0.00,CLR,,0.00,WeatherDisplay:10.37,2013-09-20 22:34:00,
2013-09-20 17:39:00,70.3,53.9,29.80,SW,218,0.0,0.0,56,0.00,CLR,,0.00,WeatherDisplay:10.37,2013-09-20 22:39:00,
2013-09-20 17:44:00,70.3,53.9,29.79,SW,221,0.0,0.0,56,0.00,CLR,,0.00,WeatherDisplay:10.37,2013-09-20 22:44:00,
2013-09-20 17:50:00,70.2,53.8,29.80,SW,221,0.0,0.0,56,0.00,CLR,,0.00,WeatherDisplay:10.37,2013-09-20 22:50:00,
2013-09-20 17:55:00,70.3,53.9,29.80,SW,234,0.0,0.0,56,0.00,CLR,,0.00,WeatherDisplay:10.37,2013-09-20 22:55:00,
2013-09-20 18:00:00,70.2,53.8,29.80,SW,235,0.0,0.0,56,0.00,CLR,,0.00,WeatherDisplay:10.37,2013-09-20 23:00:00,
2013-09-20 18:05:00,70.3,53.9,29.79,SW,234,0.0,0.0,56,0.00,CLR,,0.00,WeatherDisplay:10.37,2013-09-20 23:05:00,
2013-09-20 18:10:00,70.3,53.9,29.79,SW,235,0.0,0.0,56,0.00,CLR,,0.00,WeatherDisplay:10.37,2013-09-20 23:10:00,
2013-09-20 18:15:00,70.2,53.8,29.79,SW,235,0.0,0.0,56,0.00,CLR,,0.00,WeatherDisplay:10.37,2013-09-20 23:15:00,
2013-09-20 18:20:00,70.2,53.8,29.80,SW,234,0.0,0.0,56,0.00,CLR,,0.00,WeatherDisplay:10.37,2013-09-20 23:20:00,
2013-09-20 18:25:00,70.1,53.7,29.80,SW,234,0.0,0.0,56,0.00,CLR,,0.00,WeatherDisplay:10.37,2013-09-20 23:25:00,
2013-09-20 18:30:00,70.1,53.7,29.79,SW,234,0.0,0.0,56,0.00,CLR,,0.00,WeatherDisplay:10.37,2013-09-20 23:30:00,
2013-09-20 18:35:00,70.1,53.7,29.79,SW,234,0.0,0.0,56,0.00,CLR,,0.00,WeatherDisplay:10.37,2013-09-20 23:35:00,
2013-09-20 18:40:00,70.0,53.6,29.79,SW,235,0.0,0.0,56,0.00,CLR,,0.00,WeatherDisplay:10.37,2013-09-20 23:40:00,
2013-09-20 18:45:00,70.0,53.6,29.79,SW,235,0.0,0.0,56,0.00,CLR,,0.00,WeatherDisplay:10.37,2013-09-20 23:45:00,
2013-09-20 18:50:00,69.9,53.5,29.80,SW,234,0.0,0.0,56,0.00,CLR,,0.00,WeatherDisplay:10.37,2013-09-20 23:50:00,
2013-09-20 18:55:00,69.9,53.5,29.79,SW,234,0.0,0.0,56,0.00,CLR,,0.00,WeatherDisplay:10.37,2013-09-20 23:55:00,
2013-09-20 19:00:00,69.9,53.5,29.79,SW,234,0.0,0.0,56,0.00,CLR,,0.00,WeatherDisplay:10.37,2013-09-21 00:00:00,
2013-09-20 19:05:00,69.8,53.4,29.79,SW,234,0.0,0.0,56,0.00,CLR,,0.00,WeatherDisplay:10.37,2013-09-21 00:05:00,
2013-09-20 19:10:00,69.8,53.4,29.79,SW,234,0.0,0.0,56,0.00,CLR,,0.00,WeatherDisplay:10.37,2013-09-21 00:10:00,
2013-09-20 19:15:00,69.7,53.3,29.80,SW,234,0.0,0.0,56,0.00,CLR,,0.00,WeatherDisplay:10.37,2013-09-21 00:15:00,
2013-09-20 19:20:00,69.7,53.3,29.80,SW,233,0.0,0.0,56,0.00,CLR,,0.00,WeatherDisplay:10.37,2013-09-21 00:20:00,
2013-09-20 19:25:00,69.7,53.3,29.80,WSW,237,0.0,0.0,56,0.00,CLR,,0.00,WeatherDisplay:10.37,2013-09-21 00:25:00,
2013-09-20 19:30:00,69.5,53.1,29.80,SW,236,0.0,0.0,56,0.00,CLR,,0.00,WeatherDisplay:10.37,2013-09-21 00:30:00,
2013-09-20 19:35:00,69.5,53.1,29.80,SW,236,0.0,0.0,56,0.00,CLR,,0.00,WeatherDisplay:10.37,2013-09-21 00:35:00,
2013-09-20 19:40:00,69.5,53.1,29.80,West,276,0.0,0.0,56,0.00,CLR,,0.00,WeatherDisplay:10.37,2013-09-21 00:40:00,
2013-09-20 19:45:00,69.4,53.0,29.81,WNW,296,0.0,0.0,56,0.00,CLR,,0.00,WeatherDisplay:10.37,2013-09-21 00:45:00,
2013-09-20 19:50:00,69.3,52.9,29.81,WNW,293,0.0,0.0,56,0.00,CLR,,0.00,WeatherDisplay:10.37,2013-09-21 00:50:00,
2013-09-20 19:55:00,68.6,52.3,29.81,NW,306,6.9,6.9,56,0.00,CLR,,0.00,WeatherDisplay:10.37,2013-09-21 00:55:00,
2013-09-20 20:00:00,68.0,51.7,29.81,NW,315,6.9,6.9,56,0.00,CLR,,0.00,WeatherDisplay:10.37,2013-09-21 01:00:00,
2013-09-20 20:05:00,67.8,52.0,29.81,NW,306,6.9,6.9,57,0.00,CLR,,0.00,WeatherDisplay:10.37,2013-09-21 01:05:00,
2013-09-20 20:10:00,67.5,51.7,29.81,WNW,303,4.6,4.6,57,0.00,CLR,,0.00,WeatherDisplay:10.37,2013-09-21 01:10:00,
2013-09-20 20:15:00,67.4,51.6,29.81,NW,312,3.0,3.0,57,0.00,CLR,,0.00,WeatherDisplay:10.37,2013-09-21 01:15:00,
2013-09-20 20:20:00,67.3,51.5,29.81,NW,315,3.5,3.5,57,0.00,CLR,,0.00,WeatherDisplay:10.37,2013-09-21 01:20:00,
2013-09-20 20:25:00,67.1,51.4,29.81,NW,308,5.0,5.0,57,0.00,CLR,,0.00,WeatherDisplay:10.37,2013-09-21 01:25:00,
2013-09-20 20:30:00,66.8,51.1,29.82,NW,317,4.6,4.6,57,0.00,CLR,,0.00,WeatherDisplay:10.37,2013-09-21 01:30:00,
2013-09-20 20:35:00,66.6,51.4,29.81,NNW,335,4.6,4.6,58,0.00,CLR,,0.00,WeatherDisplay:10.37,2013-09-21 01:35:00,
2013-09-20 20:40:00,66.3,51.1,29.82,NNW,336,4.6,4.6,58,0.00,CLR,,0.00,WeatherDisplay:10.37,2013-09-21 01:40:00,
2013-09-20 20:45:00,65.9,51.2,29.82,NW,325,3.5,3.5,59,0.00,CLR,,0.00,WeatherDisplay:10.37,2013-09-21 01:45:00,
2013-09-20 20:50:00,65.7,51.4,29.82,NW,322,2.3,2.3,60,0.00,CLR,,0.00,WeatherDisplay:10.37,2013-09-21 01:50:00,
2013-09-20 20:55:00,65.4,51.6,29.82,NW,319,4.6,4.6,61,0.00,CLR,,0.00,WeatherDisplay:10.37,2013-09-21 01:55:00,
2013-09-20 21:00:00,65.2,51.8,29.82,NW,317,3.5,3.5,62,0.00,CLR,,0.00,WeatherDisplay:10.37,2013-09-21 02:00:00,
2013-09-20 21:05:00,65.0,52.1,29.82,NW,316,3.5,3.5,63,0.00,CLR,,0.00,WeatherDisplay:10.37,2013-09-21 02:05:00,
2013-09-20 21:10:00,64.8,51.9,29.82,NW,314,2.3,2.3,63,0.00,CLR,,0.00,WeatherDisplay:10.37,2013-09-21 02:10:00,
2013-09-20 21:15:00,64.5,52.0,29.82,NW,319,5.0,5.0,64,0.00,CLR,,0.00,WeatherDisplay:10.37,2013-09-21 02:15:00,
2013-09-20 21:20:00,64.3,52.3,29.82,NW,317,3.5,3.5,65,0.00,CLR,,0.00,WeatherDisplay:10.37,2013-09-21 02:20:00,
2013-09-20 21:25:00,64.1,52.1,29.82,NW,325,5.8,5.8,65,0.00,CLR,,0.00,WeatherDisplay:10.37,2013-09-21 02:25:00,
2013-09-20 21:30:00,64.0,52.0,29.82,NW,310,3.5,3.5,65,0.00,CLR,,0.00,WeatherDisplay:10.37,2013-09-21 02:30:00,
2013-09-20 21:35:00,63.9,52.3,29.82,NW,310,3.5,3.5,66,0.00,CLR,,0.00,WeatherDisplay:10.37,2013-09-21 02:35:00,
2013-09-20 21:40:00,63.8,52.2,29.82,NW,320,0.0,0.0,66,0.00,CLR,,0.00,WeatherDisplay:10.37,2013-09-21 02:40:00,
2013-09-20 21:45:00,63.6,52.0,29.82,WNW,296,3.5,3.5,66,0.00,CLR,,0.00,WeatherDisplay:10.37,2013-09-21 02:45:00,
2013-09-20 21:50:00,63.4,51.8,29.82,NW,315,4.0,4.4,66,0.00,CLR,,0.00,WeatherDisplay:10.37,2013-09-21 02:50:00,
2013-09-20 21:55:00,63.3,51.7,29.83,NW,319,5.8,5.8,66,0.00,CLR,,0.00,WeatherDisplay:10.37,2013-09-21 02:55:00,
2013-09-20 22:00:00,63.1,52.0,29.83,NW,313,6.9,6.9,67,0.00,CLR,,0.00,WeatherDisplay:10.37,2013-09-21 03:00:00,
2013-09-20 22:05:00,63.0,52.3,29.83,NNW,330,6.9,6.9,68,0.00,CLR,,0.00,WeatherDisplay:10.37,2013-09-21 03:05:00,
2013-09-20 22:10:00,62.9,52.6,29.83,North,5,2.3,2.3,69,0.00,CLR,,0.00,WeatherDisplay:10.37,2013-09-21 03:10:00,
2013-09-20 22:15:00,62.8,52.9,29.83,North,5,5.8,0.0,70,0.00,CLR,,0.00,WeatherDisplay:10.37,2013-09-21 03:15:00,
2013-09-20 22:20:00,62.6,52.7,29.83,NW,325,4.0,4.0,70,0.00,CLR,,0.00,WeatherDisplay:10.37,2013-09-21 03:20:00,
2013-09-20 22:25:00,62.5,52.6,29.83,NNW,331,0.0,0.0,70,0.00,CLR,,0.00,WeatherDisplay:10.37,2013-09-21 03:25:00,
2013-09-20 22:30:00,62.3,52.4,29.83,NNW,328,2.3,0.0,70,0.00,CLR,,0.00,WeatherDisplay:10.37,2013-09-21 03:30:00,
2013-09-20 22:35:00,62.2,52.3,29.83,NNW,333,0.0,0.7,70,0.00,CLR,,0.00,WeatherDisplay:10.37,2013-09-21 03:35:00,
2013-09-20 22:40:00,62.0,52.1,29.83,NNW,328,0.0,0.2,70,0.00,CLR,,0.00,WeatherDisplay:10.37,2013-09-21 03:40:00,
2013-09-20 22:45:00,61.8,51.9,29.83,NNW,342,3.5,0.0,70,0.00,CLR,,0.00,WeatherDisplay:10.37,2013-09-21 03:45:00,
2013-09-20 22:50:00,61.7,51.8,29.83,NNW,327,0.0,0.0,70,0.00,CLR,,0.00,WeatherDisplay:10.37,2013-09-21 03:50:00,
2013-09-20 22:55:00,61.6,51.7,29.83,NNW,345,0.0,0.8,70,0.00,CLR,,0.00,WeatherDisplay:10.37,2013-09-21 03:55:00,
2013-09-20 23:00:00,61.5,51.6,29.83,NNW,341,0.0,0.0,70,0.00,CLR,,0.00,WeatherDisplay:10.37,2013-09-21 04:00:00,
2013-09-20 23:01:00,61.5,51.6,29.83,NNW,341,0.0,0.0,70,0.00,CLR,,0.00,WeatherDisplay:10.37,2013-09-21 04:01:00,
2013-09-20 23:02:00,61.5,51.6,29.83,NNW,341,2.0,0.0,70,0.00,CLR,,0.00,WeatherDisplay:10.37,2013-09-21 04:02:00,
2013-09-20 23:07:00,61.4,51.5,29.83,NW,309,0.0,0.0,70,0.00,CLR,,0.00,WeatherDisplay:10.37,2013-09-21 04:07:00,
2013-09-20 23:12:00,61.3,51.4,29.83,NNW,334,1.2,0.0,70,0.00,CLR,,0.00,WeatherDisplay:10.37,2013-09-21 04:12:00,
2013-09-20 23:17:00,61.2,51.3,29.83,NNW,331,2.3,2.3,70,0.00,CLR,,0.00,WeatherDisplay:10.37,2013-09-21 04:17:00,
2013-09-20 23:22:00,61.1,51.2,29.83,NNW,331,0.0,0.0,70,0.00,CLR,,0.00,WeatherDisplay:10.37,2013-09-21 04:22:00,
2013-09-20 23:27:00,61.0,51.1,29.83,NNW,329,0.0,0.0,70,0.00,CLR,,0.00,WeatherDisplay:10.37,2013-09-21 04:27:00,
2013-09-20 23:32:00,60.9,51.0,29.83,NNW,329,0.0,0.0,70,0.00,CLR,,0.00,WeatherDisplay:10.37,2013-09-21 04:32:00,
2013-09-20 23:37:00,60.8,51.0,29.83,NNW,329,2.3,2.3,70,0.00,CLR,,0.00,WeatherDisplay:10.37,2013-09-21 04:37:00,
2013-09-20 23:42:00,60.6,50.8,29.83,NNW,327,0.0,0.0,70,0.00,CLR,,0.00,WeatherDisplay:10.37,2013-09-21 04:42:00,
2013-09-20 23:47:00,60.4,50.6,29.83,NNW,344,2.3,2.3,70,0.00,CLR,,0.00,WeatherDisplay:10.37,2013-09-21 04:47:00,
2013-09-20 23:52:00,60.2,50.0,29.83,NW,317,3.5,3.5,69,0.00,CLR,,0.00,WeatherDisplay:10.37,2013-09-21 04:52:00,
2013-09-20 23:57:00,60.0,49.8,29.83,NW,317,2.3,2.3,69,0.00,CLR,,0.00,WeatherDisplay:10.37,2013-09-21 04:57:00,